2019-071R (45126 NORAD) Tracking and Keplerian Element Data

This shows tracking and keplerian element data for the satellite.

Feedback or suggestion? Click here.




ElementValue
Catalog45126
Name2019-071R
Epoch Orbit313
Epoch Day52.86465042
Epoch Year2020
RAAN206.4984
Inclination51.6417
Eccentricity0.0010558
Argument of Perigee330.3218
Mean Anonmoly29.7163
Mean Motion15.33308307
Decay Rate2.93E-05
L11 45126U 19071R 20052.86465042 .00002930 00000-0 10108-3 0 9997
L22 45126 51.6417 206.4984 0010558 330.3218 29.7163 15.33308307 3134

Live tracking and technical data element details for 2019-071R (NORAD 45126). 2019-071R can be tracked NOW for your location showing map with azimuth and elevation plus other details from your city location.

Track the satellite on the map from your city or location and see movement details for azimuth, elevation, latitude, longitude, range, height, and movement on the map or in text.







IsCatalogInMostPopularTable: catalog: 45126, numindb: 6
Update: records affected: 1



GetName: 45126 2019-071R

Hit Count: updated at: Wed, 26 Feb 2020 15:47:11 GMT